Time,TemperatureF,DewpointF,PressureIn,WindDirection,WindDirectionDegrees,WindSpeedMPH,WindSpeedGustMPH,Humidity,HourlyPrecipIn,Conditions,Clouds,dailyrainin,SoftwareType,DateUTC
2013-02-03 00:01:00,25.0,23.0,30.02,SSE,150,1.0,-999.0,92,0.01,,,-99.99,,2013-02-03 05:01:00,
2013-02-03 00:11:00,25.0,23.0,30.02,SSE,150,1.0,-999.0,92,0.01,,,-99.99,,2013-02-03 05:11:00,
2013-02-03 00:22:00,27.0,23.0,30.01,North,0,0.0,-999.0,86,0.01,,,-99.99,,2013-02-03 05:22:00,
2013-02-03 00:31:00,27.0,25.0,30.01,North,0,0.0,-999.0,92,0.00,,,-99.99,,2013-02-03 05:31:00,
2013-02-03 00:41:00,27.0,25.0,30.01,North,0,0.0,-999.0,92,0.00,,,-99.99,,2013-02-03 05:41:00,
2013-02-03 00:52:00,27.0,25.0,30.01,North,0,0.0,-999.0,92,0.00,,,-99.99,,2013-02-03 05:52:00,
2013-02-03 01:02:00,27.0,25.0,30.01,North,0,0.0,-999.0,92,0.00,,,-99.99,,2013-02-03 06:02:00,
2013-02-03 01:11:00,27.0,25.0,30.01,North,0,0.0,-999.0,92,0.00,,,-99.99,,2013-02-03 06:11:00,
2013-02-03 01:21:00,27.0,25.0,29.99,North,0,0.0,-999.0,92,0.00,,,-99.99,,2013-02-03 06:21:00,
2013-02-03 01:31:00,27.0,25.0,29.99,North,0,0.0,-999.0,92,0.00,,,-99.99,,2013-02-03 06:31:00,
2013-02-03 01:41:00,27.0,25.0,29.99,North,0,0.0,-999.0,92,0.00,,,-99.99,,2013-02-03 06:41:00,
2013-02-03 01:52:00,27.0,25.0,29.98,North,350,1.0,-999.0,92,0.00,,,-99.99,,2013-02-03 06:52:00,
2013-02-03 02:01:00,27.0,25.0,29.98,North,350,1.0,-999.0,92,0.00,,,-99.99,,2013-02-03 07:01:00,
2013-02-03 02:11:00,27.0,25.0,29.98,North,350,1.0,-999.0,92,0.00,,,-99.99,,2013-02-03 07:11:00,
2013-02-03 02:21:00,27.0,25.0,29.97,North,10,2.0,-999.0,92,0.00,,,-99.99,,2013-02-03 07:21:00,
2013-02-03 02:31:00,27.0,25.0,29.96,NNE,20,3.0,-999.0,92,0.00,,,-99.99,,2013-02-03 07:31:00,
2013-02-03 02:41:00,27.0,25.0,29.96,NNE,20,3.0,-999.0,92,0.00,,,-99.99,,2013-02-03 07:41:00,
2013-02-03 02:52:00,27.0,25.0,29.95,NNE,30,2.0,-999.0,92,0.00,,,-99.99,,2013-02-03 07:52:00,
2013-02-03 03:01:00,27.0,25.0,29.95,NNE,30,2.0,-999.0,92,0.00,,,-99.99,,2013-02-03 08:01:00,
2013-02-03 03:11:00,27.0,25.0,29.95,NNE,30,2.0,-999.0,92,0.00,,,-99.99,,2013-02-03 08:11:00,
2013-02-03 03:21:00,25.0,23.0,29.95,East,90,2.0,-999.0,92,0.00,,,-99.99,,2013-02-03 08:21:00,
2013-02-03 03:31:00,25.0,23.0,29.94,East,100,2.0,-999.0,92,0.00,,,-99.99,,2013-02-03 08:31:00,
2013-02-03 03:41:00,25.0,23.0,29.94,East,100,2.0,-999.0,92,0.00,,,-99.99,,2013-02-03 08:41:00,
2013-02-03 03:51:00,25.0,23.0,29.93,NNE,20,2.0,-999.0,92,0.00,,,-99.99,,2013-02-03 08:51:00,
2013-02-03 04:02:00,25.0,23.0,29.93,NNE,20,2.0,-999.0,92,0.00,,,-99.99,,2013-02-03 09:02:00,
2013-02-03 04:11:00,25.0,23.0,29.93,NNE,20,2.0,-999.0,92,0.00,,,-99.99,,2013-02-03 09:11:00,
2013-02-03 04:21:00,25.0,23.0,29.92,NW,310,3.0,-999.0,92,0.00,,,-99.99,,2013-02-03 09:21:00,
2013-02-03 04:31:00,25.0,23.0,29.92,NW,310,3.0,-999.0,92,0.00,,,-99.99,,2013-02-03 09:31:00,
2013-02-03 04:41:00,25.0,23.0,29.92,NW,310,3.0,-999.0,92,0.00,,,-99.99,,2013-02-03 09:41:00,
2013-02-03 04:51:00,27.0,23.0,29.92,North,360,7.0,-999.0,86,0.00,,,-99.99,,2013-02-03 09:51:00,
2013-02-03 05:01:00,27.0,23.0,29.92,North,360,7.0,-999.0,86,0.00,,,-99.99,,2013-02-03 10:01:00,
2013-02-03 05:11:00,27.0,23.0,29.92,North,360,7.0,-999.0,86,0.00,,,-99.99,,2013-02-03 10:11:00,
2013-02-03 05:21:00,25.0,23.0,29.91,North,10,5.0,-999.0,92,0.00,,,-99.99,,2013-02-03 10:21:00,
2013-02-03 05:31:00,25.0,23.0,29.91,NNE,20,7.0,-999.0,92,0.00,,,-99.99,,2013-02-03 10:31:00,
2013-02-03 05:41:00,25.0,23.0,29.91,NNE,20,7.0,-999.0,92,0.00,,,-99.99,,2013-02-03 10:41:00,
2013-02-03 05:52:00,25.0,23.0,29.91,NNE,20,3.0,-999.0,92,0.00,,,-99.99,,2013-02-03 10:52:00,
2013-02-03 06:01:00,25.0,23.0,29.91,NNE,20,3.0,-999.0,92,0.00,,,-99.99,,2013-02-03 11:01:00,
2013-02-03 06:11:00,25.0,23.0,29.91,NNE,20,3.0,-999.0,92,0.00,,,-99.99,,2013-02-03 11:11:00,
2013-02-03 06:21:00,25.0,21.0,29.92,NNE,20,5.0,-999.0,85,0.00,,,-99.99,,2013-02-03 11:21:00,
2013-02-03 06:31:00,25.0,21.0,29.92,NE,40,3.0,-999.0,85,0.00,,,-99.99,,2013-02-03 11:31:00,
2013-02-03 06:41:00,25.0,21.0,29.92,NE,40,3.0,-999.0,85,0.00,,,-99.99,,2013-02-03 11:41:00,
2013-02-03 06:52:00,25.0,21.0,29.92,NE,40,2.0,-999.0,85,0.00,,,-99.99,,2013-02-03 11:52:00,
2013-02-03 07:02:00,25.0,21.0,29.92,NE,40,2.0,-999.0,85,0.00,,,-99.99,,2013-02-03 12:02:00,
2013-02-03 07:11:00,25.0,21.0,29.92,NE,40,2.0,-999.0,85,0.00,,,0.00,,2013-02-03 12:11:00,
2013-02-03 07:21:00,23.0,21.0,29.92,NE,40,1.0,-999.0,92,0.00,,,0.00,,2013-02-03 12:21:00,
2013-02-03 07:32:00,23.0,21.0,29.92,East,80,1.0,-999.0,92,0.00,,,0.00,,2013-02-03 12:32:00,
2013-02-03 07:41:00,23.0,21.0,29.92,East,80,1.0,-999.0,92,0.00,,,0.00,,2013-02-03 12:41:00,
2013-02-03 07:52:00,23.0,21.0,29.92,ENE,70,1.0,-999.0,92,0.00,,,0.00,,2013-02-03 12:52:00,
2013-02-03 08:02:00,23.0,21.0,29.92,ENE,70,1.0,-999.0,92,0.00,,,0.00,,2013-02-03 13:02:00,
2013-02-03 08:11:00,23.0,21.0,29.92,ENE,70,1.0,-999.0,92,0.00,,,-99.99,,2013-02-03 13:11:00,
2013-02-03 08:21:00,23.0,21.0,29.93,East,80,7.0,-999.0,92,0.00,,,-99.99,,2013-02-03 13:21:00,
2013-02-03 08:31:00,25.0,21.0,29.93,SSE,150,2.0,-999.0,85,0.00,,,-99.99,,2013-02-03 13:31:00,
2013-02-03 08:41:00,25.0,21.0,29.93,SSE,150,2.0,-999.0,85,0.00,,,-99.99,,2013-02-03 13:41:00,
2013-02-03 08:52:00,25.0,21.0,29.93,ESE,110,3.0,-999.0,85,0.00,,,-99.99,,2013-02-03 13:52:00,
2013-02-03 09:01:00,25.0,21.0,29.93,ESE,110,3.0,-999.0,85,0.00,,,-99.99,,2013-02-03 14:01:00,
2013-02-03 09:11:00,25.0,21.0,29.93,ESE,110,3.0,-999.0,85,0.00,,,-99.99,,2013-02-03 14:11:00,
2013-02-03 09:21:00,27.0,21.0,29.93,East,100,5.0,-999.0,79,0.00,,,-99.99,,2013-02-03 14:21:00,
2013-02-03 09:31:00,27.0,21.0,29.93,East,90,5.0,-999.0,79,0.00,,,-99.99,,2013-02-03 14:31:00,
2013-02-03 09:41:00,27.0,21.0,29.93,East,90,5.0,-999.0,79,0.00,,,-99.99,,2013-02-03 14:41:00,
2013-02-03 09:52:00,27.0,21.0,29.93,East,90,5.0,-999.0,79,0.00,,,-99.99,,2013-02-03 14:52:00,
2013-02-03 10:02:00,27.0,21.0,29.93,East,90,5.0,-999.0,79,0.00,,,-99.99,,2013-02-03 15:02:00,
2013-02-03 10:11:00,27.0,21.0,29.92,NNE,30,1.0,-999.0,79,0.00,,,-99.99,,2013-02-03 15:11:00,
2013-02-03 10:21:00,28.0,21.0,29.92,North,10,1.0,-999.0,74,0.00,,,-99.99,,2013-02-03 15:21:00,
2013-02-03 10:31:00,28.0,21.0,29.92,ENE,60,1.0,-999.0,74,0.00,,,-99.99,,2013-02-03 15:31:00,
2013-02-03 10:41:00,28.0,21.0,29.92,ENE,60,1.0,-999.0,74,0.00,,,-99.99,,2013-02-03 15:41:00,
2013-02-03 10:51:00,28.0,21.0,29.91,North,360,2.0,-999.0,74,0.00,,,-99.99,,2013-02-03 15:51:00,
2013-02-03 11:01:00,28.0,21.0,29.91,North,360,2.0,-999.0,74,0.00,,,-99.99,,2013-02-03 16:01:00,
2013-02-03 11:11:00,28.0,21.0,29.91,North,360,2.0,-999.0,74,0.00,,,-99.99,,2013-02-03 16:11:00,
2013-02-03 11:21:00,28.0,21.0,29.90,WNW,300,1.0,-999.0,74,0.00,,,-99.99,,2013-02-03 16:21:00,
2013-02-03 11:31:00,28.0,21.0,29.89,NE,40,1.0,-999.0,74,0.00,,,-99.99,,2013-02-03 16:31:00,
2013-02-03 11:41:00,28.0,21.0,29.89,NE,40,1.0,-999.0,74,0.00,,,-99.99,,2013-02-03 16:41:00,
2013-02-03 11:52:00,28.0,21.0,29.88,NE,40,3.0,-999.0,74,0.00,,,-99.99,,2013-02-03 16:52:00,
2013-02-03 12:01:00,28.0,21.0,29.88,NE,40,3.0,-999.0,74,0.00,,,-99.99,,2013-02-03 17:01:00,
2013-02-03 12:11:00,28.0,21.0,29.88,NE,40,3.0,-999.0,74,0.00,,,-99.99,,2013-02-03 17:11:00,
2013-02-03 12:21:00,28.0,21.0,29.87,North,0,0.0,-999.0,74,0.00,,,-99.99,,2013-02-03 17:21:00,
2013-02-03 12:31:00,28.0,21.0,29.86,SE,130,1.0,-999.0,74,0.00,,,-99.99,,2013-02-03 17:31:00,
2013-02-03 12:41:00,28.0,21.0,29.86,SE,130,1.0,-999.0,74,0.00,,,-99.99,,2013-02-03 17:41:00,
2013-02-03 12:51:00,28.0,21.0,29.86,SE,130,1.0,-999.0,74,0.00,,,-99.99,,2013-02-03 17:51:00,
2013-02-03 13:01:00,28.0,21.0,29.86,SE,130,1.0,-999.0,74,0.00,,,-99.99,,2013-02-03 18:01:00,
2013-02-03 13:11:00,28.0,21.0,29.86,SE,130,1.0,-999.0,74,0.00,,,-99.99,,2013-02-03 18:11:00,
2013-02-03 13:22:00,32.0,21.0,29.84,WNW,300,5.0,-999.0,63,0.00,,,-99.99,,2013-02-03 18:22:00,
2013-02-03 13:31:00,32.0,21.0,29.84,WNW,300,5.0,-999.0,63,0.00,,,-99.99,,2013-02-03 18:31:00,
2013-02-03 13:41:00,32.0,21.0,29.84,WNW,300,5.0,-999.0,63,0.00,,,-99.99,,2013-02-03 18:41:00,
2013-02-03 13:51:00,30.0,21.0,29.83,WNW,290,5.0,-999.0,68,0.00,,,-99.99,,2013-02-03 18:51:00,
2013-02-03 14:01:00,30.0,21.0,29.83,WNW,290,5.0,-999.0,68,0.00,,,-99.99,,2013-02-03 19:01:00,
2013-02-03 14:11:00,30.0,21.0,29.83,WNW,290,5.0,-999.0,68,0.00,,,-99.99,,2013-02-03 19:11:00,
2013-02-03 14:21:00,30.0,21.0,29.82,West,280,3.0,-999.0,68,0.00,,,-99.99,,2013-02-03 19:21:00,
2013-02-03 14:31:00,32.0,21.0,29.82,West,270,3.0,-999.0,63,0.00,,,-99.99,,2013-02-03 19:31:00,
2013-02-03 14:41:00,32.0,21.0,29.82,West,270,3.0,-999.0,63,0.00,,,-99.99,,2013-02-03 19:41:00,
2013-02-03 14:51:00,32.0,21.0,29.81,WSW,250,6.0,-999.0,63,0.00,,,-99.99,,2013-02-03 19:51:00,
2013-02-03 15:01:00,32.0,21.0,29.81,WSW,250,6.0,-999.0,63,0.00,,,-99.99,,2013-02-03 20:01:00,
2013-02-03 15:11:00,32.0,21.0,29.81,WSW,250,6.0,-999.0,63,0.00,,,-99.99,,2013-02-03 20:11:00,
2013-02-03 15:21:00,32.0,19.0,29.81,West,260,5.0,-999.0,59,0.00,,,-99.99,,2013-02-03 20:21:00,
2013-02-03 15:31:00,32.0,21.0,29.81,West,280,6.0,-999.0,63,0.00,,,-99.99,,2013-02-03 20:31:00,
2013-02-03 15:41:00,32.0,21.0,29.81,West,280,6.0,-999.0,63,0.00,,,-99.99,,2013-02-03 20:41:00,
2013-02-03 15:51:00,32.0,21.0,29.81,West,280,6.0,-999.0,63,0.00,,,-99.99,,2013-02-03 20:51:00,
2013-02-03 16:02:00,32.0,21.0,29.81,West,280,6.0,-999.0,63,0.00,,,-99.99,,2013-02-03 21:02:00,
2013-02-03 16:11:00,32.0,21.0,29.81,West,280,6.0,-999.0,63,0.00,,,-99.99,,2013-02-03 21:11:00,
2013-02-03 16:21:00,32.0,21.0,29.81,WNW,290,5.0,-999.0,63,0.00,,,-99.99,,2013-02-03 21:21:00,
2013-02-03 16:31:00,30.0,23.0,29.81,West,280,5.0,-999.0,74,0.00,,,-99.99,,2013-02-03 21:31:00,
2013-02-03 16:42:00,30.0,23.0,29.81,West,280,5.0,-999.0,74,0.00,,,-99.99,,2013-02-03 21:42:00,
2013-02-03 16:51:00,30.0,23.0,29.81,WNW,290,7.0,-999.0,74,0.00,,,-99.99,,2013-02-03 21:51:00,
2013-02-03 17:01:00,30.0,23.0,29.81,WNW,290,7.0,-999.0,74,0.00,,,-99.99,,2013-02-03 22:01:00,
2013-02-03 17:11:00,30.0,23.0,29.81,WNW,290,7.0,-999.0,74,0.00,,,-99.99,,2013-02-03 22:11:00,
2013-02-03 17:21:00,30.0,23.0,29.81,West,260,3.0,-999.0,74,0.00,,,-99.99,,2013-02-03 22:21:00,
2013-02-03 17:31:00,30.0,23.0,29.81,WSW,250,3.0,-999.0,74,0.00,,,-99.99,,2013-02-03 22:31:00,
2013-02-03 17:41:00,30.0,23.0,29.81,WSW,250,3.0,-999.0,74,0.00,,,-99.99,,2013-02-03 22:41:00,
2013-02-03 17:51:00,30.0,23.0,29.81,WSW,250,3.0,-999.0,74,0.00,,,-99.99,,2013-02-03 22:51:00,
2013-02-03 18:01:00,30.0,23.0,29.81,WSW,250,3.0,-999.0,74,0.00,,,-99.99,,2013-02-03 23:01:00,
2013-02-03 18:11:00,30.0,23.0,29.81,WSW,250,3.0,-999.0,74,0.00,,,-99.99,,2013-02-03 23:11:00,
2013-02-03 18:21:00,28.0,25.0,29.81,SSW,210,5.0,-999.0,86,0.00,,,-99.99,,2013-02-03 23:21:00,
2013-02-03 18:32:00,28.0,25.0,29.81,West,260,1.0,-999.0,86,0.00,,,-99.99,,2013-02-03 23:32:00,
2013-02-03 18:41:00,28.0,25.0,29.81,West,260,1.0,-999.0,86,0.00,,,-99.99,,2013-02-03 23:41:00,
2013-02-03 18:51:00,28.0,25.0,29.82,SW,220,2.0,-999.0,86,0.00,,,-99.99,,2013-02-03 23:51:00,
2013-02-03 19:01:00,28.0,25.0,29.82,SW,220,2.0,-999.0,86,0.00,,,-99.99,,2013-02-04 00:01:00,
2013-02-03 19:11:00,28.0,25.0,29.82,SW,220,2.0,-999.0,86,0.00,,,-99.99,,2013-02-04 00:11:00,
2013-02-03 19:31:00,28.0,27.0,29.82,SW,230,1.0,-999.0,92,0.00,,,-99.99,,2013-02-04 00:31:00,
2013-02-03 19:41:00,28.0,27.0,29.82,SW,230,1.0,-999.0,92,0.00,,,-99.99,,2013-02-04 00:41:00,
2013-02-03 19:51:00,28.0,27.0,29.82,SW,230,1.0,-999.0,92,0.00,,,-99.99,,2013-02-04 00:51:00,
2013-02-03 20:01:00,28.0,27.0,29.82,SW,230,1.0,-999.0,92,0.00,,,-99.99,,2013-02-04 01:01:00,
2013-02-03 20:11:00,28.0,27.0,29.82,SW,230,1.0,-999.0,92,0.00,,,-99.99,,2013-02-04 01:11:00,
2013-02-03 20:21:00,28.0,27.0,29.82,SSW,210,3.0,-999.0,92,0.00,,,-99.99,,2013-02-04 01:21:00,
2013-02-03 20:31:00,28.0,27.0,29.82,West,270,3.0,-999.0,92,0.00,,,-99.99,,2013-02-04 01:31:00,
2013-02-03 20:41:00,28.0,27.0,29.82,West,270,3.0,-999.0,92,0.00,,,-99.99,,2013-02-04 01:41:00,
2013-02-03 20:51:00,28.0,27.0,29.82,WNW,290,2.0,-999.0,92,0.00,,,-99.99,,2013-02-04 01:51:00,
2013-02-03 21:01:00,28.0,27.0,29.82,WNW,290,2.0,-999.0,92,0.00,,,-99.99,,2013-02-04 02:01:00,
2013-02-03 21:11:00,28.0,27.0,29.82,WNW,290,2.0,-999.0,92,0.00,,,-99.99,,2013-02-04 02:11:00,
2013-02-03 21:21:00,30.0,27.0,29.83,West,260,5.0,-999.0,86,0.00,,,-99.99,,2013-02-04 02:21:00,
2013-02-03 21:31:00,30.0,27.0,29.83,SW,220,3.0,-999.0,86,0.01,,,-99.99,,2013-02-04 02:31:00,
2013-02-03 21:41:00,30.0,27.0,29.83,SW,220,3.0,-999.0,86,0.06,,,-99.99,,2013-02-04 02:41:00,
2013-02-03 21:51:00,30.0,28.0,29.83,West,260,6.0,-999.0,92,0.06,,,-99.99,,2013-02-04 02:51:00,
2013-02-03 22:01:00,30.0,28.0,29.83,West,260,6.0,-999.0,92,0.06,,,-99.99,,2013-02-04 03:01:00,
2013-02-03 22:11:00,30.0,28.0,29.83,West,260,6.0,-999.0,92,0.10,,,-99.99,,2013-02-04 03:11:00,
2013-02-03 22:21:00,30.0,28.0,29.84,WNW,300,14.0,21.0,92,0.14,,,-99.99,,2013-02-04 03:21:00,
2013-02-03 22:31:00,30.0,27.0,29.84,NW,310,15.0,-999.0,86,0.14,,,-99.99,,2013-02-04 03:31:00,
2013-02-03 22:41:00,30.0,27.0,29.84,NW,310,15.0,-999.0,86,0.14,,,-99.99,,2013-02-04 03:41:00,
2013-02-03 22:51:00,30.0,27.0,29.85,NW,320,23.0,27.0,86,0.25,,,-99.99,,2013-02-04 03:51:00,
2013-02-03 23:01:00,30.0,27.0,29.85,NW,320,23.0,27.0,86,0.25,,,-99.99,,2013-02-04 04:01:00,
2013-02-03 23:11:00,30.0,27.0,29.85,NW,320,23.0,27.0,86,0.42,,,-99.99,,2013-02-04 04:11:00,
2013-02-03 23:21:00,28.0,19.0,29.87,NW,320,22.0,25.0,68,0.00,,,-99.99,,2013-02-04 04:21:00,
2013-02-03 23:31:00,28.0,16.0,29.88,NW,320,18.0,30.0,58,0.00,,,-99.99,,2013-02-04 04:31:00,